DW4236 Weather Reports


time (UTC)temp
F
wind
direction
speed
knots
gust
knots
rain 1hr
in
rain 24hr
in
rain mn
in
humidity
%
barometer
mb
20260504023605 45 337 0.0 0.0 0.00 0.00 0.00 68 1013.1
20260504023105 45 337 0.0 0.0 0.00 0.00 0.00 67 1013.1
20260504022605 46 337 0.0 0.0 0.00 0.00 0.00 67 1013.0
20260504022105 46 337 0.0 0.0 0.00 0.00 0.00 66 1013.1
20260504021605 46 337 0.0 0.0 0.00 0.00 0.00 65 1013.0
20260504021104 46 337 0.0 0.0 0.00 0.00 0.00 64 1013.0
20260504020606 47 337 0.0 0.0 0.00 0.00 0.00 63 1013.0
20260504020106 47 337 0.0 0.0 0.00 0.00 0.00 63 1013.1
20260504015605 48 337 0.0 0.0 0.00 0.00 0.00 62 1013.1
20260504015104 48 337 0.0 0.0 0.00 0.00 0.00 60 1013.0
20260504014605 48 337 0.0 0.0 0.00 0.00 0.00 59 1013.0
20260504014104 49 337 0.0 0.0 0.00 0.00 0.00 57 1013.0
20260504013604 49 337 0.0 0.0 0.00 0.00 0.00 57 1013.0
20260504013104 50 337 0.0 0.0 0.00 0.00 0.00 56 1012.9
20260504012106 51 337 0.0 0.0 0.00 0.00 0.00 54 1012.9
20260504011605 51 337 0.0 0.0 0.00 0.00 0.00 52 1012.8
20260504011105 51 337 0.0 0.0 0.00 0.00 0.00 51 1012.8
20260504010105 53 337 0.0 0.0 0.00 0.00 0.00 48 1012.7
20260504005105 54 337 0.0 0.0 0.00 0.00 0.00 46 1012.6
20260504004604 54 337 0.9 2.6 0.00 0.00 0.00 44 1012.6
20260504004105 55 355 0.9 1.7 0.00 0.00 0.00 44 1012.5
20260504003606 55 355 0.9 1.7 0.00 0.00 0.00 42 1012.5
20260504003105 55 339 0.9 2.6 0.00 0.00 0.00 42 1012.4
20260504002606 55 308 1.7 6.1 0.00 0.00 0.00 42 1012.3
20260504002105 55 354 2.6 4.3 0.00 0.00 0.00 41 1012.2
20260504001605 56 309 0.9 2.6 0.00 0.00 0.00 42 1012.1
20260504001105 56 349 0.0 1.7 0.00 0.00 0.00 40 1012.1
20260504000605 56 350 1.7 5.2 0.00 0.00 0.00 39 1012.0
20260504000105 57 356 0.9 2.6 0.00 0.00 0.00 39 1011.9
20260503235605 57 331 2.6 4.3 0.00 0.00 0.00 38 1011.9
20260503234104 57 309 1.7 5.2 0.00 0.00 0.00 38 1011.6
20260503233605 57 355 0.9 1.7 0.00 0.00 0.00 38 1011.4
20260503233105 57 354 1.7 2.6 0.00 0.00 0.00 38 1011.5
20260503232605 57 350 1.7 2.6 0.00 0.00 0.00 38 1011.4
20260503231604 58 3 1.7 6.1 0.00 0.00 0.00 37 1011.3
20260503231105 58 351 0.9 6.1 0.00 0.00 0.00 39 1011.2
20260503230605 58 348 1.7 5.2 0.00 0.00 0.00 37 1011.2
20260503230104 58 323 0.9 5.2 0.00 0.00 0.00 37 1011.2
20260503225604 58 45 2.6 6.1 0.00 0.00 0.00 35 1011.1
20260503225104 58 20 1.7 2.6 0.00 0.00 0.00 35 1011.1
20260503224106 58 8 4.3 8.7 0.00 0.00 0.00 35 1011.1
20260503223604 58 341 4.3 8.7 0.00 0.00 0.00 34 1011.1
20260503223104 58 0 4.3 13.0 0.00 0.00 0.00 34 1011.1
20260503222605 58 352 6.1 10.4 0.00 0.00 0.00 33 1011.1
20260503222104 59 328 1.7 8.7 0.00 0.00 0.00 33 1011.0
20260503221604 59 332 1.7 8.7 0.00 0.00 0.00 33 1010.9
20260503220605 59 3 3.5 8.7 0.00 0.00 0.00 32 1011.0
20260503220105 60 344 2.6 10.4 0.00 0.00 0.00 32 1011.0
20260503215605 60 29 2.6 13.0 0.00 0.00 0.00 31 1011.0
20260503215104 60 6 7.8 13.9 0.00 0.00 0.00 30 1010.9
20260503214605 60 341 5.2 10.4 0.00 0.00 0.00 30 1010.9
20260503214105 60 336 2.6 7.0 0.00 0.00 0.00 30 1010.9
20260503213605 60 357 5.2 13.0 0.00 0.00 0.00 31 1010.9
20260503213105 60 327 6.1 12.2 0.00 0.00 0.00 30 1010.9
20260503212605 60 345 5.2 14.8 0.00 0.00 0.00 29 1010.8
20260503212106 60 296 6.1 18.2 0.00 0.00 0.00 29 1010.7
20260503211604 60 300 2.6 10.4 0.00 0.00 0.00 29 1010.8
20260503211104 60 333 4.3 11.3 0.00 0.00 0.00 30 1010.9
20260503210114 60 290 5.2 13.9 0.00 0.00 0.00 30 1010.9
20260503205105 61 338 4.3 8.7 0.00 0.00 0.00 31 1011.0
20260503204604 60 24 3.5 13.9 0.00 0.00 0.00 31 1010.9
20260503204104 59 13 5.2 10.4 0.00 0.00 0.00 32 1010.9
20260503203604 59 18 7.8 15.6 0.00 0.00 0.00 31 1010.9
20260503203105 60 340 7.8 13.9 0.00 0.00 0.00 31 1011.1
20260503202605 60 6 4.3 12.2 0.00 0.00 0.00 34 1010.9
20260503200605 59 346 4.3 8.7 0.00 0.00 0.00 33 1011.0
20260503200104 59 357 4.3 13.0 0.00 0.00 0.00 34 1011.1
20260503195604 59 42 2.6 10.4 0.00 0.00 0.00 34 1011.0
20260503195104 59 340 6.1 15.6 0.00 0.00 0.00 34 1011.2
20260503194605 60 336 5.2 10.4 0.00 0.00 0.00 34 1011.2
20260503194105 59 10 2.6 7.8 0.00 0.00 0.00 37 1011.2
20260503193604 59 352 2.6 12.2 0.00 0.00 0.00 36 1011.3
20260503193104 59 341 6.1 14.8 0.00 0.00 0.00 34 1011.3
20260503192605 59 317 2.6 10.4 0.00 0.00 0.00 35 1011.4
20260503192104 58 332 4.3 18.2 0.00 0.00 0.00 35 1011.6
20260503191104 59 326 6.1 13.9 0.00 0.00 0.00 37 1011.6
20260503190604 59 16 6.1 13.9 0.00 0.00 0.00 36 1011.8
20260503190105 58 10 6.1 13.9 0.00 0.00 0.00 40 1011.7
20260503185605 57 5 6.1 13.0 0.00 0.00 0.00 38 1011.8
20260503185105 56 23 7.8 18.2 0.00 0.00 0.00 38 1011.9
20260503184606 55 350 2.6 8.7 0.00 0.00 0.00 39 1012.0
20260503184105 55 5 5.2 11.3 0.00 0.00 0.00 39 1012.0
20260503183606 55 50 4.3 13.0 0.00 0.00 0.00 39 1012.0
20260503183105 55 37 4.3 13.9 0.00 0.00 0.00 40 1012.2
20260503182605 55 35 6.1 17.4 0.00 0.00 0.00 39 1012.3
20260503181605 54 47 3.5 14.8 0.00 0.00 0.00 41 1012.4
20260503181105 54 5 6.1 13.0 0.00 0.00 0.00 39 1012.3
20260503180604 55 32 4.3 15.6 0.00 0.00 0.00 43 1012.4
20260503180105 55 51 7.8 13.9 0.00 0.00 0.00 40 1012.4
20260503175104 56 355 4.3 10.4 0.00 0.00 0.00 40 1012.5
20260503174105 55 324 3.5 15.6 0.00 0.00 0.00 42 1012.6
20260503173604 55 338 2.6 10.4 0.00 0.00 0.00 43 1012.7
20260503173105 55 22 6.1 11.3 0.00 0.00 0.00 43 1012.7
20260503172604 53 23 2.6 10.4 0.00 0.00 0.00 44 1012.7
20260503172105 54 333 4.3 11.3 0.00 0.00 0.00 43 1012.8
20260503171605 54 37 2.6 10.4 0.00 0.00 0.00 45 1012.8
20260503171104 53 62 4.3 7.8 0.00 0.00 0.00 47 1012.8
20260503170104 52 337 5.2 11.3 0.00 0.00 0.00 44 1012.9
20260503160105 53 357 3.5 7.8 0.00 0.00 0.00 44 1012.8
20260503150618 51 21 5.2 10.4 0.00 0.00 0.00 41 1012.9
20260503150106 51 331 4.3 12.2 0.00 0.00 0.00 46 1013.0
20260503140105 51 11 1.7 8.7 0.00 0.00 0.00 52 1013.0
20260503131105 49 3 4.3 12.2 0.00 0.00 0.00 55 1013.3
20260503130604 49 6 3.5 10.4 0.00 0.00 0.00 55 1013.2
20260503130104 50 332 2.6 10.4 0.00 0.00 0.00 54 1013.2
20260503110604 42 347 2.6 7.8 0.00 0.00 0.00 70 1013.1
20260503110104 41 331 2.6 6.1 0.00 0.00 0.00 70 1013.0
20260503100104 41 359 0.0 0.0 0.00 0.00 0.00 72 1012.5
20260503090105 43 357 0.9 1.7 0.00 0.02 0.00 65 1012.3
20260503081605 44 92 1.7 5.2 0.00 0.07 0.00 62 1012.4
20260503081104 44 35 1.7 4.3 0.00 0.08 0.00 63 1012.5
20260503080604 44 102 4.3 8.7 0.00 0.08 0.00 62 1012.4
20260503080104 44 51 2.6 6.1 0.00 0.08 0.00 64 1012.4
20260503072604 44 38 2.6 7.8 0.00 0.08 0.00 64 1012.5
20260503072105 44 38 5.2 8.7 0.00 0.08 0.00 64 1012.5
20260503071604 44 54 1.7 8.7 0.00 0.08 0.00 64 1012.5
20260503071104 44 23 2.6 10.4 0.00 0.08 0.00 64 1012.5
20260503070604 44 54 2.6 5.2 0.00 0.08 0.00 65 1012.5
20260503070105 44 71 2.6 10.4 0.00 0.08 0.00 66 1012.5
20260503060105 44 68 2.6 7.0 0.00 0.09 0.00 67 1012.7
20260503054604 44 62 1.7 5.2 0.00 0.10 0.00 66 1013.0
20260503054104 44 56 1.7 2.6 0.00 0.10 0.00 66 1013.0
20260503053104 44 66 1.7 4.3 0.00 0.10 0.00 65 1013.0
20260503051604 45 99 1.7 2.6 0.00 0.10 0.00 64 1013.1
20260503051104 45 90 1.7 2.6 0.00 0.10 0.00 63 1013.2
20260503050104 45 57 0.0 2.6 0.00 0.10 0.00 63 1013.4
20260503045604 45 53 1.7 5.2 0.00 0.10 0.00 62 1013.4
20260503045104 45 61 1.7 4.3 0.00 0.10 0.00 62 1013.3
20260503044605 46 96 1.7 6.1 0.00 0.10 0.00 62 1013.3
20260503044104 46 43 1.7 2.6 0.00 0.10 0.00 62 1013.3
20260503043605 46 43 2.6 5.2 0.00 0.10 0.00 61 1013.3
20260503042604 46 79 2.6 7.0 0.00 0.10 0.00 61 1013.5
20260503042105 46 49 1.7 7.8 0.00 0.10 0.00 61 1013.6
20260503041604 46 82 1.7 4.3 0.00 0.10 0.00 60 1013.6
20260503041104 46 89 1.7 2.6 0.00 0.10 0.00 60 1013.6
20260503040104 46 63 1.7 2.6 0.00 0.10 0.00 60 1013.5
20260503035605 46 66 1.7 2.6 0.00 0.10 0.10 59 1013.4
20260503035104 47 67 1.7 4.3 0.00 0.10 0.10 60 1013.5
20260503034604 47 50 1.7 4.3 0.00 0.10 0.10 59 1013.5
20260503034105 47 40 0.0 1.7 0.00 0.10 0.10 58 1013.5
20260503032604 48 59 2.6 7.0 0.00 0.10 0.10 56 1013.4
20260503031604 48 61 1.7 4.3 0.00 0.10 0.10 56 1013.4
20260503031104 48 50 2.6 4.3 0.00 0.10 0.10 56 1013.3
20260503025604 49 55 0.9 2.6 0.00 0.10 0.10 53 1013.4
20260503025105 49 56 0.9 2.6 0.00 0.10 0.10 52 1013.4